Weather History for Kingman, AZ

Change the Weather History Date:

Friday, April 12, 2013

  Actual Average Record
Temperature  
Mean Temperature 62 °F 58 °F  
Max Temperature 81 °F 72 °F 94 °F (1936)
Min Temperature 43 °F 43 °F 25 °F (1953)
Degree Days  
Heating Degree Days 3 8  
Month to date heating degree days 80 113  
Since 1 July heating degree days 2805 2944  
Cooling Degree Days 0 1  
Month to date cooling degree days 0 5  
Year to date cooling degree days 6 8  
Growing Degree Days 12 (Base 50)    
Moisture  
Dew Point 20 °F    
Average Humidity 25    
Maximum Humidity 40    
Minimum Humidity 9    
Precipitation  
Precipitation 0.00 in 0.02 in 0.75 in (1918)
Month to date precipitation 0.05 0.20  
Year to date precipitation 1.18 3.12  
Sea Level Pressure  
Sea Level Pressure 29.71 in    
Wind  
Wind Speed 5 mph (SW)    
Max Wind Speed 10 mph    
Max Gust Speed 13 mph    
Visibility 10 miles    
Events      
T = Trace of Precipitation, MM = Missing Value Source: NWS Daily Summary

Daily Weather History Graph

Daily Weather History Graph

Search for Another Location

Airport:

Trip Planner

Search our weather history database for the weather conditions in past years. The results will help you decide how hot, cold, wet, or windy it might be!

Date:

Astronomy

Apr. 12, 2013 Rise Set
Actual Time 6:06 AM MST 7:06 PM MST
Civil Twilight 5:40 AM MST 7:32 PM MST
Nautical Twilight 5:10 AM MST 8:03 PM MST
Astronomical Twilight 4:38 AM MST 8:35 PM MST
Moon 7:24 AM MST (4/12) 9:35 PM MST (4/12)
Length of Visible Light 13h 51m
Length of Day
12h 59m
Waxing Crescent, 6% of the Moon is Illuminated
Apr 12
Waxing Crescent
Apr 18
First Quarter
Apr 25
Full
May 2
Last Quarter
May 9
New

Hourly Weather History & Observations

Time (MST) Temp. Windchill Dew Point Humidity Pressure Visibility Wind Dir Wind Speed Gust Speed Precip Events Conditions
12:51 AM 53.1 °F - 19.9 °F 27% 29.69 in 10.0 mi SSW 4.6 mph - N/A   Clear
1:51 AM 45.0 °F - 21.0 °F 39% 29.70 in 10.0 mi Calm Calm - N/A   Clear
2:51 AM 45.0 °F 41.8 °F 21.9 °F 40% 29.68 in 10.0 mi ESE 5.8 mph - N/A   Clear
3:51 AM 45.0 °F 43.5 °F 21.9 °F 40% 29.69 in 10.0 mi SE 3.5 mph - N/A   Partly Cloudy
4:51 AM 45.0 °F 43.5 °F 21.9 °F 40% 29.69 in 10.0 mi SE 3.5 mph - N/A   Partly Cloudy
5:51 AM 46.9 °F - 21.9 °F 37% 29.70 in 10.0 mi Calm Calm - N/A   Partly Cloudy
6:51 AM 51.1 °F - 21.9 °F 32% 29.71 in 10.0 mi SSW 3.5 mph - N/A   Clear
7:51 AM 55.0 °F - 24.1 °F 30% 29.73 in 10.0 mi SW 3.5 mph - N/A   Clear
8:51 AM 64.9 °F - 21.0 °F 19% 29.74 in 10.0 mi NNE 6.9 mph - N/A   Clear
9:51 AM 71.1 °F - 19.9 °F 14% 29.75 in 10.0 mi North 3.5 mph - N/A   Clear
10:51 AM 73.9 °F - 19.9 °F 13% 29.75 in 10.0 mi NNW 5.8 mph - N/A   Clear
11:51 AM 75.9 °F - 19.0 °F 12% 29.75 in 10.0 mi WNW 6.9 mph - N/A   Clear
12:51 PM 75.0 °F - 19.0 °F 12% 29.72 in 10.0 mi Variable 5.8 mph - N/A   Clear
1:51 PM 78.1 °F - 19.0 °F 11% 29.71 in 10.0 mi Variable 5.8 mph 18.4 mph N/A   Clear
2:51 PM 79.0 °F - 19.0 °F 11% 29.69 in 10.0 mi Calm Calm - N/A   Partly Cloudy
3:51 PM 79.0 °F - 19.9 °F 11% 29.67 in 10.0 mi North 6.9 mph - N/A   Mostly Cloudy
4:51 PM 79.0 °F - 21.0 °F 12% 29.66 in 10.0 mi WSW 9.2 mph 19.6 mph N/A   Overcast
5:51 PM 77.0 °F - 21.0 °F 12% 29.66 in 10.0 mi NW 11.5 mph - N/A   Mostly Cloudy
6:51 PM 73.0 °F - 12.9 °F 10% 29.67 in 10.0 mi NW 10.4 mph - N/A   Clear
7:51 PM 64.0 °F - 18.0 °F 17% 29.70 in 10.0 mi Calm Calm - N/A   Clear
8:51 PM 57.9 °F - 19.9 °F 23% 29.71 in 10.0 mi SSE 6.9 mph - N/A   Clear
9:51 PM 55.0 °F - 21.0 °F 27% 29.72 in 10.0 mi SE 3.5 mph - N/A   Clear
10:51 PM 54.0 °F - 21.9 °F 29% 29.72 in 10.0 mi Calm Calm - N/A   Clear
11:51 PM 53.1 °F - 21.9 °F 30% 29.72 in 10.0 mi South 5.8 mph - N/A   Clear